QPF
0.00 0.00 0.00 0.00 0.00 0.00 0.00 0.00 0.00 0.01 0.00 0.00 0.01 0.01 0.01 0.01 0.01 0.02 0.02 0.01 0.02 0.02 0.01 0.01 0.01 0.01 0.02 0.03 0.04 0.06 0.07 0.06 0.06 0.07 0.08 0.09 0.11 0.09 0.09 0.09 0.07 0.07 0.09
0.00 0.00 0.00 0.00 0.00 0.00 0.00 0.01 0.01 0.01 0.01 0.00 0.00 0.00 0.00 0.00 0.01 0.02 0.01 0.01 0.01 0.01 0.01 0.01 0.01 0.01 0.01 0.02 0.03 0.03 0.04 0.04 0.04 0.03 0.03 0.05 0.09 0.09 0.08 0.07 0.06 0.08 0.12
0.00 0.00 0.00 0.00 0.00 0.00 0.00 0.00 0.00 0.00 0.00 0.00 0.00 0.00 0.00 0.00 0.00 0.01 0.01 0.01 0.02 0.02 0.01 0.01 0.01 0.01 0.01 0.02 0.03 0.05 0.04 0.03 0.03 0.02 0.02 0.03 0.04 0.05 0.06 0.06 0.05 0.07 0.11
0.01 0.00 0.00 0.00 0.01 0.01 0.01 0.00 0.01 0.00 0.00 0.00 0.00 0.00 0.00 0.00 0.00 0.00 0.01 0.01 0.01 0.01 0.01 0.01 0.01 0.02 0.01 0.02 0.03 0.03 0.02 0.01 0.01 0.01 0.02 0.02 0.03 0.03 0.03 0.03 0.04 0.04 0.06
0.02 0.01 0.00 0.00 0.00 0.00 0.00 0.01 0.00 0.00 0.00 0.00 0.00 0.00 0.00 0.00 0.00 0.00 0.01 0.01 0.01 0.01 0.00 0.01 0.01 0.01 0.01 0.01 0.01 0.01 0.01 0.01 0.01 0.02 0.02 0.02 0.02 0.03 0.03 0.02 0.02 0.03 0.03
0.03 0.01 0.01 0.01 0.00 0.00 0.00 0.00 0.00 0.00 0.00 0.00 0.00 0.00 0.00 0.00 0.00 0.00 0.00 0.00 0.00 0.00 0.00 0.00 0.01 0.01 0.01 0.00 0.00 0.00 0.01 0.01 0.02 0.02 0.02 0.02 0.03 0.05 0.06 0.03 0.02 0.02 0.02
0.05 0.03 0.01 0.01 0.00 0.00 0.00 0.01 0.00 0.00 0.00 0.00 0.00 0.00 0.00 0.00 0.00 0.00 0.00 0.00 0.00 0.00 0.00 0.00 0.00 0.01 0.00 0.00 0.00 0.00 0.00 0.00 0.01 0.01 0.01 0.02 0.04 0.05 0.05 0.04 0.03 0.02 0.02
0.02 0.02 0.02 0.01 0.01 0.01 0.00 0.01 0.01 0.01 0.01 0.01 0.01 0.00 0.00 0.00 0.00 0.00 0.00 0.01 0.01 0.01 0.00 0.00 0.00 0.00 0.00 0.00 0.00 0.00 0.00 0.00 0.01 0.01 0.01 0.03 0.04 0.04 0.04 0.05 0.04 0.03 0.02
0.02 0.01 0.03 0.02 0.01 0.01 0.01 0.02 0.02 0.02 0.01 0.01 0.01 0.00 0.00 0.00 0.01 0.01 0.01 0.01 0.01 0.01 0.00 0.00 0.01 0.00 0.00 0.00 0.01 0.01 0.01 0.01 0.01 0.01 0.01 0.02 0.03 0.03 0.03 0.04 0.04 0.05 0.03
0.02 0.01 0.02 0.03 0.01 0.01 0.02 0.03 0.03 0.02 0.01 0.01 0.01 0.01 0.01 0.01 0.01 0.01 0.01 0.01 0.01 0.01 0.00 0.01 0.01 0.01 0.01 0.00 0.01 0.01 0.02 0.01 0.01 0.02 0.02 0.02 0.03 0.03 0.03 0.03 0.03 0.03 0.03
0.01 0.01 0.01 0.01 0.01 0.01 0.03 0.08 0.06 0.03 0.02 0.01 0.01 0.01 0.01 0.01 0.02 0.01 0.01 0.01 0.01 0.01 0.01 0.00 0.01 0.02 0.01 0.01 0.01 0.01 0.01 0.01 0.01 0.02 0.02 0.02 0.02 0.02 0.03 0.03 0.02 0.02 0.03
0.01 0.01 0.00 0.00 0.01 0.02 0.11 0.24 0.19 0.07 0.02 0.01 0.01 0.01 0.01 0.01 0.01 0.01 0.01 0.01 0.01 0.01 0.01 0.01 0.02 0.01 0.01 0.01 0.01 0.01 0.01 0.01 0.01 0.01 0.02 0.02 0.02 0.02 0.03 0.03 0.02 0.02 0.02
0.00 0.00 0.00 0.00 0.01 0.01 0.06 0.13 0.14 0.10 0.05 0.02 0.02 0.02 0.02 0.01 0.01 0.00 0.01 0.01 0.01 0.01 0.01 0.01 0.02 0.02 0.01 0.01 0.01 0.01 0.01 0.01 0.01 0.02 0.02 0.02 0.02 0.02 0.02 0.02 0.02 0.01 0.02
0.00 0.00 0.00 0.00 0.00 0.00 0.00 0.01 0.03 0.06 0.11 0.11 0.10 0.07 0.04 0.02 0.01 0.01 0.01 0.01 0.01 0.01 0.01 0.01 0.02 0.02 0.02 0.01 0.01 0.01 0.00 0.00 0.01 0.01 0.01 0.01 0.01 0.02 0.01 0.02 0.02 0.02 0.02
0.00 0.00 0.00 0.00 0.00 0.00 0.00 0.00 0.01 0.02 0.03 0.06 0.08 0.08 0.06 0.03 0.01 0.01 0.01 0.02 0.02 0.01 0.02 0.02 0.01 0.02 0.02 0.02 0.02 0.01 0.01 0.01 0.01 0.01 0.01 0.01 0.02 0.02 0.02 0.02 0.02 0.03 0.02
0.00 0.00 0.00 0.00 0.00 0.00 0.00 0.00 0.01 0.02 0.02 0.04 0.05 0.05 0.05 0.03 0.02 0.01 0.01 0.02 0.02 0.02 0.02 0.02 0.01 0.02 0.02 0.03 0.04 0.04 0.03 0.02 0.02 0.02 0.02 0.02 0.02 0.02 0.02 0.02 0.02 0.02 0.02
0.00 0.00 0.00 0.00 0.00 0.00 0.01 0.01 0.01 0.01 0.01 0.01 0.01 0.03 0.05 0.04 0.02 0.02 0.01 0.01 0.01 0.01 0.02 0.02 0.02 0.02 0.03 0.04 0.05 0.05 0.04 0.03 0.02 0.02 0.02 0.02 0.02 0.03 0.03 0.03 0.02 0.02 0.02
0.00 0.00 0.00 0.01 0.00 0.01 0.00 0.00 0.00 0.00 0.00 0.01 0.01 0.01 0.02 0.04 0.02 0.02 0.02 0.02 0.02 0.02 0.01 0.02 0.02 0.02 0.03 0.03 0.03 0.04 0.03 0.02 0.02 0.01 0.02 0.02 0.03 0.04 0.04 0.04 0.03 0.02 0.02
0.00 0.00 0.00 0.00 0.00 0.00 0.00 0.00 0.00 0.00 0.01 0.01 0.01 0.01 0.01 0.02 0.01 0.01 0.02 0.02 0.03 0.02 0.02 0.01 0.02 0.02 0.02 0.03 0.04 0.04 0.03 0.02 0.02 0.02 0.02 0.03 0.03 0.04 0.05 0.04 0.02 0.02 0.02
0.00 0.00 0.00 0.00 0.00 0.00 0.00 0.01 0.00 0.00 0.01 0.01 0.01 0.01 0.01 0.01 0.01 0.01 0.01 0.01 0.02 0.02 0.03 0.02 0.02 0.02 0.03 0.05 0.07 0.06 0.04 0.02 0.02 0.01 0.01 0.02 0.03 0.03 0.03 0.02 0.02 0.01 0.01
0.01 0.00 0.00 0.00 0.00 0.01 0.01 0.01 0.01 0.01 0.01 0.01 0.02 0.02 0.02 0.01 0.02 0.02 0.02 0.01 0.02 0.02 0.02 0.02 0.03 0.04 0.05 0.06 0.06 0.04 0.03 0.02 0.01 0.01 0.01 0.02 0.03 0.02 0.03 0.03 0.02 0.02 0.02
0.02 0.01 0.01 0.01 0.01 0.01 0.01 0.01 0.02 0.02 0.02 0.02 0.02 0.02 0.02 0.01 0.02 0.02 0.02 0.03 0.04 0.05 0.05 0.05 0.06 0.06 0.06 0.05 0.05 0.04 0.04 0.03 0.02 0.01 0.01 0.01 0.02 0.02 0.02 0.02 0.02 0.02 0.03
0.03 0.03 0.02 0.01 0.01 0.01 0.01 0.02 0.02 0.02 0.03 0.03 0.03 0.03 0.03 0.02 0.02 0.02 0.03 0.04 0.06 0.06 0.05 0.05 0.05 0.04 0.04 0.05 0.06 0.06 0.05 0.05 0.03 0.02 0.02 0.02 0.02 0.02 0.02 0.02 0.02 0.02 0.02
0.04 0.05 0.04 0.02 0.02 0.01 0.02 0.02 0.02 0.02 0.04 0.05 0.05 0.05 0.04 0.04 0.04 0.04 0.04 0.05 0.05 0.04 0.03 0.04 0.05 0.04 0.03 0.04 0.06 0.06 0.06 0.05 0.05 0.04 0.04 0.04 0.03 0.03 0.02 0.02 0.02 0.02 0.02
0.02 0.04 0.05 0.05 0.04 0.04 0.04 0.03 0.02 0.02 0.05 0.07 0.08 0.07 0.06 0.05 0.05 0.05 0.06 0.05 0.04 0.04 0.03 0.03 0.03 0.03 0.03 0.04 0.04 0.04 0.05 0.05 0.05 0.05 0.05 0.05 0.04 0.04 0.03 0.02 0.02 0.02 0.02
0.02 0.04 0.06 0.06 0.07 0.07 0.05 0.04 0.04 0.03 0.06 0.10 0.10 0.08 0.06 0.06 0.06 0.07 0.08 0.08 0.07 0.07 0.07 0.06 0.04 0.03 0.03 0.04 0.04 0.04 0.03 0.03 0.04 0.05 0.04 0.04 0.04 0.03 0.03 0.03 0.03 0.03 0.03
MSLP
1009.74 1010.11 1010.43 1010.69 1010.88 1011.04 1011.21 1011.43 1011.73 1012.12 1012.57 1013.04 1013.49 1013.87 1014.14 1014.30 1014.35 1014.34 1014.33 1014.36 1014.49 1014.73 1015.10 1015.58 1016.13 1016.71 1017.27 1017.79 1018.23 1018.59 1018.87 1019.08 1019.24 1019.36 1019.43 1019.46 1019.44 1019.37 1019.26 1019.11 1018.95 1018.81 1018.71
1009.83 1010.20 1010.51 1010.73 1010.87 1010.97 1011.07 1011.24 1011.52 1011.91 1012.40 1012.93 1013.45 1013.90 1014.22 1014.40 1014.44 1014.40 1014.34 1014.31 1014.38 1014.59 1014.93 1015.39 1015.94 1016.52 1017.09 1017.60 1018.04 1018.40 1018.70 1018.93 1019.13 1019.29 1019.43 1019.52 1019.57 1019.55 1019.45 1019.31 1019.13 1018.94 1018.77
1009.83 1010.21 1010.52 1010.73 1010.83 1010.87 1010.92 1011.03 1011.27 1011.65 1012.16 1012.74 1013.32 1013.82 1014.20 1014.42 1014.48 1014.44 1014.34 1014.28 1014.31 1014.46 1014.76 1015.20 1015.72 1016.27 1016.82 1017.32 1017.75 1018.10 1018.40 1018.66 1018.90 1019.12 1019.33 1019.49 1019.61 1019.65 1019.60 1019.48 1019.29 1019.07 1018.86
1009.78 1010.17 1010.49 1010.69 1010.77 1010.77 1010.76 1010.81 1011.01 1011.36 1011.86 1012.45 1013.07 1013.63 1014.06 1014.32 1014.42 1014.39 1014.30 1014.23 1014.22 1014.35 1014.61 1015.00 1015.48 1016.00 1016.51 1016.98 1017.39 1017.74 1018.05 1018.33 1018.60 1018.88 1019.14 1019.37 1019.56 1019.66 1019.66 1019.56 1019.39 1019.16 1018.92
1009.70 1010.10 1010.44 1010.65 1010.71 1010.68 1010.62 1010.61 1010.74 1011.04 1011.50 1012.08 1012.70 1013.29 1013.76 1014.07 1014.22 1014.23 1014.17 1014.11 1014.10 1014.21 1014.44 1014.80 1015.24 1015.73 1016.20 1016.64 1017.03 1017.37 1017.68 1017.97 1018.27 1018.58 1018.88 1019.17 1019.40 1019.55 1019.59 1019.53 1019.37 1019.15 1018.90
1009.64 1010.05 1010.40 1010.62 1010.67 1010.61 1010.50 1010.43 1010.48 1010.70 1011.10 1011.63 1012.23 1012.81 1013.31 1013.66 1013.86 1013.93 1013.91 1013.89 1013.91 1014.02 1014.25 1014.59 1015.00 1015.46 1015.91 1016.32 1016.70 1017.02 1017.32 1017.62 1017.92 1018.24 1018.56 1018.87 1019.12 1019.30 1019.37 1019.34 1019.21 1019.00 1018.75
1009.61 1010.02 1010.38 1010.60 1010.65 1010.56 1010.40 1010.26 1010.23 1010.36 1010.67 1011.12 1011.66 1012.21 1012.71 1013.09 1013.33 1013.45 1013.50 1013.53 1013.59 1013.74 1013.99 1014.33 1014.74 1015.18 1015.61 1016.02 1016.37 1016.69 1016.98 1017.27 1017.56 1017.87 1018.19 1018.48 1018.74 1018.92 1019.01 1019.00 1018.89 1018.71 1018.48
1009.64 1010.03 1010.38 1010.59 1010.63 1010.51 1010.31 1010.10 1009.98 1010.01 1010.21 1010.56 1011.02 1011.52 1011.98 1012.36 1012.64 1012.81 1012.92 1013.02 1013.15 1013.34 1013.62 1013.98 1014.41 1014.85 1015.28 1015.68 1016.04 1016.35 1016.63 1016.90 1017.18 1017.46 1017.75 1018.03 1018.26 1018.44 1018.53 1018.54 1018.46 1018.32 1018.13
1009.69 1010.05 1010.37 1010.56 1010.58 1010.43 1010.19 1009.92 1009.72 1009.65 1009.75 1009.99 1010.35 1010.77 1011.18 1011.54 1011.82 1012.04 1012.20 1012.36 1012.55 1012.80 1013.13 1013.53 1013.97 1014.43 1014.88 1015.29 1015.65 1015.96 1016.24 1016.50 1016.75 1017.01 1017.27 1017.51 1017.72 1017.89 1017.99 1018.02 1017.98 1017.88 1017.74
1009.76 1010.07 1010.35 1010.50 1010.49 1010.31 1010.03 1009.72 1009.45 1009.30 1009.29 1009.43 1009.68 1010.01 1010.35 1010.67 1010.94 1011.17 1011.37 1011.58 1011.83 1012.13 1012.51 1012.94 1013.42 1013.90 1014.37 1014.79 1015.17 1015.49 1015.78 1016.03 1016.28 1016.51 1016.75 1016.97 1017.17 1017.33 1017.44 1017.50 1017.50 1017.46 1017.38
1009.81 1010.06 1010.28 1010.39 1010.34 1010.14 1009.84 1009.49 1009.18 1008.97 1008.88 1008.92 1009.07 1009.29 1009.55 1009.81 1010.05 1010.27 1010.48 1010.72 1011.01 1011.35 1011.76 1012.23 1012.73 1013.24 1013.73 1014.18 1014.58 1014.92 1015.22 1015.49 1015.74 1015.98 1016.21 1016.43 1016.63 1016.80 1016.93 1017.03 1017.09 1017.11 1017.09
1009.83 1010.01 1010.17 1010.22 1010.14 1009.92 1009.61 1009.25 1008.92 1008.66 1008.51 1008.47 1008.52 1008.65 1008.82 1009.00 1009.19 1009.39 1009.60 1009.84 1010.14 1010.51 1010.95 1011.43 1011.96 1012.48 1012.99 1013.46 1013.89 1014.26 1014.59 1014.89 1015.17 1015.43 1015.68 1015.91 1016.13 1016.33 1016.49 1016.63 1016.74 1016.82 1016.86
1009.80 1009.93 1010.02 1010.02 1009.90 1009.66 1009.35 1008.99 1008.66 1008.38 1008.19 1008.09 1008.06 1008.10 1008.18 1008.29 1008.42 1008.57 1008.75 1008.99 1009.30 1009.67 1010.11 1010.61 1011.14 1011.67 1012.20 1012.68 1013.13 1013.54 1013.91 1014.24 1014.56 1014.86 1015.15 1015.42 1015.67 1015.90 1016.10 1016.28 1016.43 1016.55 1016.65
1009.73 1009.80 1009.83 1009.78 1009.62 1009.38 1009.07 1008.73 1008.40 1008.12 1007.90 1007.75 1007.66 1007.63 1007.63 1007.66 1007.72 1007.83 1007.98 1008.21 1008.50 1008.87 1009.31 1009.81 1010.33 1010.86 1011.39 1011.88 1012.35 1012.78 1013.19 1013.57 1013.93 1014.28 1014.61 1014.92 1015.21 1015.48 1015.71 1015.92 1016.10 1016.25 1016.39
1009.61 1009.63 1009.60 1009.50 1009.31 1009.06 1008.76 1008.43 1008.12 1007.85 1007.61 1007.43 1007.29 1007.18 1007.12 1007.09 1007.10 1007.16 1007.29 1007.50 1007.79 1008.15 1008.58 1009.06 1009.58 1010.10 1010.61 1011.11 1011.58 1012.03 1012.46 1012.88 1013.29 1013.68 1014.06 1014.41 1014.74 1015.03 1015.28 1015.50 1015.69 1015.86 1016.01
1009.42 1009.39 1009.31 1009.16 1008.96 1008.69 1008.40 1008.09 1007.79 1007.52 1007.27 1007.06 1006.88 1006.73 1006.61 1006.53 1006.51 1006.55 1006.66 1006.86 1007.15 1007.51 1007.93 1008.40 1008.90 1009.40 1009.90 1010.38 1010.84 1011.30 1011.75 1012.19 1012.63 1013.06 1013.47 1013.86 1014.20 1014.51 1014.77 1014.99 1015.18 1015.34 1015.48
1009.13 1009.06 1008.94 1008.76 1008.53 1008.26 1007.96 1007.66 1007.37 1007.10 1006.84 1006.61 1006.40 1006.21 1006.06 1005.96 1005.91 1005.95 1006.07 1006.27 1006.57 1006.93 1007.36 1007.82 1008.30 1008.77 1009.24 1009.70 1010.15 1010.60 1011.05 1011.50 1011.96 1012.41 1012.84 1013.25 1013.61 1013.92 1014.18 1014.39 1014.56 1014.70 1014.83
1008.72 1008.62 1008.47 1008.26 1008.01 1007.72 1007.43 1007.13 1006.84 1006.56 1006.29 1006.04 1005.80 1005.60 1005.43 1005.32 1005.29 1005.33 1005.47 1005.71 1006.02 1006.41 1006.84 1007.29 1007.75 1008.20 1008.65 1009.07 1009.50 1009.93 1010.36 1010.82 1011.28 1011.74 1012.19 1012.60 1012.97 1013.28 1013.53 1013.73 1013.89 1014.01 1014.12
1008.18 1008.06 1007.88 1007.65 1007.38 1007.09 1006.79 1006.49 1006.19 1005.90 1005.62 1005.35 1005.11 1004.89 1004.73 1004.63 1004.62 1004.70 1004.87 1005.14 1005.49 1005.89 1006.33 1006.79 1007.24 1007.67 1008.08 1008.48 1008.88 1009.29 1009.71 1010.15 1010.61 1011.08 1011.53 1011.95 1012.32 1012.64 1012.89 1013.09 1013.23 1013.35 1013.45
1007.52 1007.38 1007.19 1006.95 1006.68 1006.38 1006.08 1005.77 1005.46 1005.16 1004.87 1004.59 1004.34 1004.13 1003.98 1003.90 1003.92 1004.04 1004.26 1004.57 1004.95 1005.38 1005.84 1006.29 1006.73 1007.15 1007.55 1007.93 1008.30 1008.69 1009.10 1009.54 1010.00 1010.46 1010.92 1011.35 1011.74 1012.06 1012.32 1012.52 1012.68 1012.79 1012.89
1006.79 1006.64 1006.44 1006.19 1005.92 1005.63 1005.32 1005.01 1004.70 1004.39 1004.09 1003.80 1003.56 1003.36 1003.23 1003.18 1003.24 1003.40 1003.66 1004.01 1004.42 1004.88 1005.34 1005.80 1006.24 1006.65 1007.03 1007.40 1007.77 1008.15 1008.56 1009.00 1009.46 1009.94 1010.40 1010.85 1011.25 1011.59 1011.87 1012.09 1012.25 1012.38 1012.49
1006.05 1005.89 1005.68 1005.44 1005.17 1004.88 1004.58 1004.26 1003.95 1003.63 1003.33 1003.05 1002.81 1002.63 1002.53 1002.52 1002.61 1002.81 1003.11 1003.48 1003.92 1004.39 1004.86 1005.33 1005.77 1006.17 1006.56 1006.93 1007.31 1007.70 1008.11 1008.56 1009.04 1009.52 1010.00 1010.46 1010.88 1011.24 1011.54 1011.78 1011.97 1012.12 1012.23
1005.36 1005.18 1004.98 1004.74 1004.48 1004.19 1003.89 1003.57 1003.25 1002.94 1002.64 1002.37 1002.15 1001.99 1001.92 1001.94 1002.07 1002.30 1002.62 1003.01 1003.46 1003.94 1004.42 1004.88 1005.32 1005.74 1006.14 1006.53 1006.92 1007.33 1007.77 1008.24 1008.73 1009.22 1009.72 1010.18 1010.61 1010.98 1011.30 1011.55 1011.76 1011.92 1012.04
1004.75 1004.56 1004.35 1004.11 1003.85 1003.56 1003.26 1002.95 1002.63 1002.32 1002.03 1001.77 1001.57 1001.44 1001.40 1001.46 1001.62 1001.87 1002.21 1002.61 1003.06 1003.54 1004.01 1004.48 1004.93 1005.36 1005.77 1006.19 1006.61 1007.05 1007.52 1008.01 1008.51 1009.02 1009.51 1009.97 1010.39 1010.76 1011.07 1011.33 1011.54 1011.70 1011.82
1004.23 1004.03 1003.80 1003.56 1003.29 1003.00 1002.69 1002.37 1002.05 1001.75 1001.47 1001.24 1001.07 1000.97 1000.97 1001.06 1001.24 1001.52 1001.87 1002.28 1002.72 1003.19 1003.66 1004.13 1004.58 1005.03 1005.47 1005.91 1006.37 1006.84 1007.34 1007.84 1008.35 1008.85 1009.33 1009.77 1010.17 1010.51 1010.79 1011.02 1011.21 1011.35 1011.45
1003.78 1003.54 1003.30 1003.03 1002.74 1002.44 1002.12 1001.80 1001.48 1001.18 1000.92 1000.72 1000.58 1000.53 1000.56 1000.69 1000.91 1001.21 1001.57 1001.98 1002.43 1002.89 1003.35 1003.81 1004.27 1004.73 1005.19 1005.66 1006.15 1006.65 1007.17 1007.68 1008.19 1008.67 1009.12 1009.52 1009.86 1010.15 1010.38 1010.56 1010.70 1010.81 1010.88
Thickness
5821 5822 5821 5818 5814 5810 5806 5804 5800 5798 5796 5792 5789 5786 5784 5784 5784 5784 5782 5781 5779 5778 5776 5774 5772 5770 5768 5766 5765 5763 5760 5757 5757 5752 5749 5749 5751 5751 5751 5750 5749 5748 5746
5818 5819 5819 5817 5814 5810 5807 5804 5802 5800 5798 5795 5793 5790 5787 5785 5785 5784 5783 5781 5780 5778 5777 5774 5771 5770 5767 5765 5764 5762 5758 5756 5756 5751 5744 5740 5741 5745 5749 5748 5747 5746 5746
5821 5820 5819 5817 5815 5812 5810 5809 5805 5803 5801 5799 5795 5791 5787 5784 5782 5781 5781 5781 5780 5779 5777 5775 5772 5770 5768 5765 5763 5762 5758 5754 5754 5754 5748 5739 5734 5737 5741 5744 5745 5744 5744
5826 5823 5821 5819 5817 5816 5815 5812 5808 5805 5803 5800 5795 5789 5784 5780 5781 5781 5781 5781 5780 5778 5777 5775 5773 5771 5769 5766 5764 5763 5760 5757 5752 5753 5753 5750 5745 5737 5733 5737 5740 5742 5741
5829 5826 5825 5823 5821 5819 5816 5813 5809 5806 5803 5800 5797 5791 5787 5785 5783 5782 5780 5779 5779 5778 5777 5775 5773 5771 5769 5767 5765 5763 5761 5758 5754 5752 5750 5748 5746 5743 5735 5730 5733 5736 5738
5831 5828 5827 5825 5822 5820 5817 5813 5808 5805 5803 5800 5797 5793 5788 5785 5782 5780 5778 5777 5777 5777 5777 5775 5773 5771 5769 5767 5765 5763 5761 5759 5756 5754 5751 5747 5744 5740 5737 5732 5730 5731 5734
5831 5827 5824 5822 5820 5818 5816 5813 5808 5804 5803 5801 5798 5795 5792 5788 5784 5781 5779 5777 5775 5775 5775 5775 5773 5771 5769 5767 5765 5763 5760 5758 5756 5753 5751 5749 5747 5745 5741 5735 5731 5730 5731
5831 5829 5827 5824 5821 5819 5816 5813 5809 5805 5803 5801 5799 5797 5794 5790 5787 5784 5781 5779 5777 5776 5776 5774 5772 5771 5769 5767 5765 5762 5760 5758 5755 5753 5751 5750 5748 5747 5744 5738 5732 5727 5726
5830 5829 5827 5824 5822 5819 5817 5815 5811 5807 5804 5802 5799 5796 5794 5792 5789 5786 5783 5781 5779 5778 5776 5774 5771 5770 5768 5766 5763 5761 5758 5757 5754 5752 5751 5749 5748 5747 5746 5742 5738 5729 5721
5831 5828 5826 5824 5823 5821 5818 5816 5812 5808 5805 5803 5801 5798 5795 5792 5790 5787 5783 5781 5779 5777 5775 5772 5770 5768 5767 5765 5762 5760 5758 5755 5753 5752 5750 5748 5747 5746 5744 5742 5738 5734 5726
5828 5827 5825 5825 5823 5821 5818 5815 5811 5807 5804 5802 5800 5798 5795 5793 5790 5787 5784 5782 5779 5776 5774 5771 5769 5767 5765 5763 5761 5759 5757 5754 5752 5751 5749 5747 5746 5744 5742 5740 5736 5732 5728
5828 5827 5825 5823 5820 5818 5816 5813 5811 5806 5805 5803 5800 5797 5795 5792 5789 5786 5784 5782 5779 5776 5773 5771 5768 5765 5763 5761 5759 5757 5755 5753 5750 5749 5747 5746 5745 5742 5740 5737 5734 5731 5728
5824 5823 5821 5819 5818 5816 5813 5811 5809 5807 5805 5802 5798 5795 5792 5790 5787 5785 5783 5781 5777 5774 5772 5769 5766 5764 5762 5760 5758 5756 5754 5752 5750 5748 5746 5744 5742 5739 5737 5735 5732 5730 5728
5818 5817 5816 5815 5815 5813 5812 5809 5807 5806 5803 5799 5795 5791 5790 5788 5786 5784 5781 5779 5776 5772 5769 5767 5765 5763 5761 5759 5757 5755 5752 5750 5749 5748 5746 5744 5741 5738 5736 5734 5731 5728 5724
5811 5812 5812 5811 5811 5809 5808 5807 5805 5803 5800 5795 5792 5790 5789 5787 5784 5781 5779 5776 5774 5772 5769 5766 5763 5762 5760 5758 5756 5753 5751 5748 5746 5745 5744 5743 5741 5739 5736 5733 5729 5726 5721
5808 5809 5809 5808 5807 5806 5805 5803 5801 5799 5797 5792 5789 5788 5786 5783 5780 5778 5775 5773 5771 5769 5766 5763 5761 5759 5758 5757 5755 5752 5749 5746 5743 5741 5741 5740 5739 5737 5734 5732 5729 5725 5720
5806 5806 5806 5806 5805 5805 5803 5800 5798 5796 5792 5789 5786 5784 5782 5779 5777 5775 5772 5769 5767 5765 5763 5761 5759 5757 5756 5756 5753 5750 5747 5744 5742 5739 5737 5737 5736 5733 5731 5728 5726 5723 5721
5803 5804 5804 5803 5803 5803 5801 5798 5795 5791 5787 5783 5781 5779 5777 5775 5773 5771 5768 5766 5765 5762 5760 5757 5756 5755 5754 5753 5750 5747 5744 5741 5739 5737 5734 5732 5730 5729 5726 5723 5720 5718 5716
5803 5803 5803 5802 5800 5799 5797 5793 5788 5785 5781 5778 5776 5775 5773 5770 5768 5766 5765 5763 5761 5759 5758 5756 5753 5751 5750 5750 5747 5742 5738 5735 5733 5733 5731 5729 5726 5724 5721 5717 5714 5712 5711
5799 5800 5799 5797 5794 5794 5792 5786 5781 5778 5775 5775 5774 5772 5770 5767 5764 5763 5762 5761 5759 5756 5755 5752 5750 5748 5746 5745 5742 5737 5733 5729 5727 5726 5726 5724 5722 5720 5716 5712 5708 5705 5705
5793 5794 5792 5789 5788 5788 5785 5778 5775 5773 5774 5772 5770 5768 5766 5763 5760 5759 5757 5756 5754 5751 5749 5747 5746 5744 5742 5740 5737 5734 5730 5726 5723 5721 5719 5719 5717 5714 5711 5708 5705 5703 5700
5782 5783 5781 5780 5780 5780 5777 5771 5768 5770 5769 5766 5763 5761 5760 5759 5757 5754 5752 5750 5747 5744 5742 5740 5738 5737 5736 5734 5731 5728 5725 5723 5719 5717 5716 5715 5712 5709 5706 5703 5701 5698 5694
5771 5772 5770 5768 5769 5770 5768 5764 5764 5765 5762 5758 5756 5754 5753 5752 5750 5747 5744 5742 5739 5736 5734 5731 5729 5728 5728 5727 5725 5723 5720 5718 5714 5713 5712 5709 5707 5704 5701 5699 5696 5691 5687
5760 5761 5759 5756 5756 5758 5759 5758 5758 5758 5755 5751 5748 5747 5745 5743 5741 5740 5737 5734 5731 5729 5726 5724 5722 5721 5720 5719 5717 5715 5712 5710 5707 5705 5704 5703 5700 5697 5695 5691 5688 5684 5681
5749 5750 5749 5747 5747 5748 5749 5750 5750 5749 5745 5743 5741 5739 5738 5735 5733 5732 5730 5729 5728 5726 5722 5720 5718 5715 5713 5714 5713 5710 5706 5703 5700 5697 5694 5692 5690 5687 5685 5683 5680 5677 5674
5738 5738 5737 5737 5738 5739 5740 5741 5742 5741 5737 5734 5732 5730 5729 5727 5725 5723 5720 5720 5719 5719 5717 5715 5713 5712 5711 5709 5705 5702 5700 5697 5694 5689 5686 5684 5682 5680 5678 5675 5673 5670 5668